This is the latest recevied weather packets stored in our database for station/object VE3DVC. If no packets are shown the sender has not sent any weather packets the latest 10 day(s).
| Time | Temp. | Humidity | Pressure | Rain* | Wind** | Luminosity | Snow |
|---|---|---|---|---|---|---|---|
| 1777429503 | 13.89° C | 83% | 1012.5 hPa | 0 mm | - | - | - |
| 1777428245 | 13.89° C | 81% | 1012.7 hPa | 0 mm | - | - | - |
| 1777427525 | 14.44° C | 80% | 1012.8 hPa | 0 mm | - | - | - |
| 1777426805 | 14.44° C | 80% | 1012.9 hPa | 0 mm | - | - | - |
| 1777426084 | 14.44° C | 80% | 1013.1 hPa | 0 mm | - | - | - |
| 1777425364 | 14.44° C | 80% | 1012.6 hPa | 0 mm | - | - | - |
| 1777424645 | 15° C | 80% | 1012.2 hPa | 0 mm | - | - | - |
| 1777423924 | 15° C | 79% | 1012 hPa | 0 mm | - | - | - |
| 1777423204 | 15° C | 79% | 1011.9 hPa | 0 mm | - | - | - |
| 1777422484 | 15.56° C | 77% | 1011.8 hPa | 0 mm | - | - | - |
| 1777421764 | 15.56° C | 76% | 1011.9 hPa | 0 mm | - | - | - |
| 1777421045 | 16.11° C | 75% | 1011.7 hPa | 0 mm | - | - | - |
| 1777420324 | 16.11° C | 74% | 1011.6 hPa | 0 mm | - | - | - |
| 1777419604 | 16.67° C | 75% | 1011.4 hPa | 0 mm | - | - | - |
| 1777418884 | 16.67° C | 74% | 1011.1 hPa | 0 mm | - | - | - |
| 1777418164 | 17.22° C | 73% | 1010.9 hPa | 0 mm | - | - | - |
| 1777417444 | 17.22° C | 73% | 1010.6 hPa | 0 mm | - | - | - |
| 1777416724 | 17.78° C | 71% | 1010.7 hPa | 0 mm | - | - | - |
| 1777416004 | 17.78° C | 71% | 1010.8 hPa | 0 mm | - | - | - |
| 1777415284 | 18.33° C | 70% | 1010.8 hPa | 0 mm | - | - | - |
| 1777414564 | 18.33° C | 68% | 1010.6 hPa | 0 mm | - | - | - |
| 1777413844 | 19.44° C | 66% | 1010.4 hPa | 0 mm | - | - | - |
| 1777413125 | 19.44° C | 65% | 1010.3 hPa | 0 mm | - | - | - |
| 1777412405 | 19.44° C | 66% | 1010.1 hPa | 0 mm | - | - | - |
| 1777411684 | 18.89° C | 66% | 1010.2 hPa | 0 mm | - | - | - |
* Rain latest hour (hover to see other rain measurements)
** Current wind speed in m/s (hover to see current wind gust speed)